Weather in Turkmenbashi

Turkmenistan     40°00′39″N   52°59′26″E
temp.,
°C
wind,
m/s
gust,
m/s
humid.,
%
clouds,
%
prec.,
mm/h
press.,
hPa
HPBL,
m
17 may, tue
tue1723:00+19n121559100 0.1 1009261
02:00+17nnw11137021 0.0 1011368
05:00+16nnw1217785 0.0 1011380
08:00+19n12166292 0.0 1013591
11:00+21n1011545 0.0 1014783
14:00+24nnw984460 0.0 10131332
17:00+22nnw1010495 0.0 1013792
20:00+20nnw89545 0.0 1014403
18 may, wed
wed1823:00+19n79545 0.0 1015271
02:00+18nnw710565 0.0 1015248
05:00+17n6105661 0.0 1015187
08:00+18nne574989 0.0 1016174
11:00+22n124268 0.0 1016750
14:00+23w434099 0.0 10151180
17:00+23wnw64418 0.0 1014625
20:00+21nw554298 0.0 1014298
19 may, thu
thu1923:00+21nnw224388 0.0 1014123
02:00+20nw33460 0.0 101364
05:00+19n22480 0.0 101211
08:00+21nne11450 0.0 101373
11:00+23wsw22410 0.0 1014391
14:00+23wsw43440 0.0 1013401
17:00+23w65450 0.0 1012311
20:00+22wnw56490 0.0 1011186
20 may, fri
fri2023:00+21nnw57500 0.0 1012168
02:00+19nnw79600 0.0 1012232
05:00+16nnw1115840 0.0 1012367
08:00+16nnw14167995 0.0 1014542
11:00+17nnw15166799 0.0 1016720
14:00+18nnw1415615 0.0 1017903
17:00+17nnw13145934 0.0 10181038
20:00+15nnw141669100 0.0 10201064
21 may, sat
sat2123:00+15nw81064100 0.1 1022840
02:00+14wnw711720 0.0 1023813
05:00+14wnw811765 0.0 1023523
08:00+15wnw911682 0.0 1025849
11:00+17wnw99612 0.0 10251027
14:00+18wnw88530 0.0 10241058
17:00+19nw66510 0.0 1022901
20:00+18wnw43530 0.0 1021577